Location: La Mariona
(45.4000°N, 11.1000°E)
Time: 01:44:21
(UTC+00:00)

Daily predictions for brighter satellites

Satellite Brightness Start Highest point End
(mag) Time Altitude Azimuth Time Altitude Azimuth Time Altitude Azimuth
Cosmos 773 Rocket 4.4 00:00:35 10° NNW 00:05:38 53° ENE 00:06:13 50° E
Cosmos 1464 Rocket 3.9 00:08:47 66° WSW 00:09:27 71° W 00:15:41 10° N
Cosmos 2219 Rocket 2.3 00:06:01 10° NNW 00:11:13 62° W 00:11:13 62° W
Cosmos 1782 Rocket 4.5 00:12:54 42° NW 00:12:54 42° NW 00:16:13 10° N
Lacrosse 4 Rocket 2.6 00:13:01 38° NW 00:13:01 38° NW 00:16:32 10° NNE
Cosmos 1354 Rocket 4.0 00:16:38 71° WNW 00:16:40 71° WNW 00:22:01 10° NNE
Cosmos 968 Rocket 4.3 00:19:13 39° WNW 00:19:30 40° WNW 00:24:20 10° N
SL-4 R/B 3.8 00:22:19 24° NE 00:22:19 24° NE 00:24:17 10° ENE
SL-16 R/B 4.2 00:18:15 10° N 00:23:00 26° NE 00:27:43 10° ESE
COSMOS 2428 3.1 00:24:11 10° NW 00:29:12 50° W 00:29:12 50° W
SL-16 R/B 2.9 00:28:36 37° SE 00:31:04 62° ENE 00:37:15 10° N
BREEZE-M TANK 3.8 00:36:08 30° E 00:36:08 30° E 00:38:33 10° E
Nadezhda 4 Rocket 4.0 00:28:21 10° NNW 00:34:36 64° W 00:35:18 60° SW
Cosmos 2360 Rocket 4.2 00:31:42 10° WNW 00:33:24 14° W 00:33:24 14° W
NPP 4.4 00:30:50 10° NNE 00:35:57 41° E 00:36:53 38° SE
Cosmos 2034 Rocket 4.1 00:35:41 56° WSW 00:36:36 62° WNW 00:42:51 10° N
CZ-2D R/B 2.6 00:31:51 10° NNE 00:37:12 50° E 00:38:05 46° SE
Okean 2 Rocket 3.4 00:41:46 58° NW 00:41:46 58° NW 00:45:43 10° N
GEOS 3 Rocket 3.7 00:36:30 10° NE 00:41:55 74° NW 00:42:46 61° WSW
ADEOS II 3.7 00:41:17 10° NE 00:45:34 25° E 00:47:27 20° SE
Cosmos 2297 Rocket 2.3 00:45:36 56° SE 00:46:19 61° ESE 00:51:54 10° NNE
Cosmos 2219 3.1 00:45:50 64° SSE 00:46:30 71° ESE 00:52:06 10° NNE
Cosmos 1092 Rocket 3.9 00:40:29 10° N 00:46:46 82° W 00:48:01 59° S
Uosat 12 SS-18 rocket 4.4 00:48:34 62° ESE 00:48:34 62° ESE 00:53:05 10° NE
Cosmos 1980 3.6 00:43:11 10° NNW 00:48:53 85° WSW 00:49:51 63° SSE
Cosmos 2333 Rocket 3.4 00:44:20 10° NW 00:48:11 28° W 00:48:11 28° W
Helios 1B rocket 3.8 00:45:44 10° N 00:48:49 29° NW 00:48:49 29° NW
Cosmos 1777 Rocket 3.8 00:49:00 76° S 00:49:26 88° ESE 00:54:46 10° NNE
Cosmos 1766 4.5 00:51:10 34° E 00:51:10 34° E 00:54:38 10° NNE
UNK 3.7 00:52:22 72° SE 00:52:44 79° ENE 00:57:27 10° N
Cosmos 44 Rocket 4.0 00:51:31 10° NW 00:55:08 41° WNW 00:55:08 41° WNW
Cosmos 1300 Rocket 4.2 00:57:53 43° WNW 00:57:53 43° WNW 01:01:34 10° N
Cosmos 2237 Rocket 2.0 00:53:16 10° NNW 00:58:56 76° WSW 00:59:51 61° S
DELTA 2 DEB (DPAF) 4.2 01:00:27 64° WNW 01:00:27 64° WNW 01:04:30 10° NNW
Okean 1 Rocket 3.1 01:01:02 68° ESE 01:01:07 68° E 01:05:27 10° NNE
CZ-4C R/B 3.9 01:04:18 46° NNW 01:04:18 46° NNW 01:06:51 10° NNW
Cosmos 1626 3.7 01:00:17 10° NNE 01:03:35 29° ENE 01:04:26 26° E
CZ-4B R/B 4.1 00:59:22 10° NNE 01:03:55 43° E 01:04:55 38° SE
IKONOS-2 4.4 01:10:35 83° SE 01:10:45 87° ENE 01:15:00 10° NNW
Cosmos 2151 Rocket 4.2 01:12:29 42° WNW 01:12:29 42° WNW 01:16:32 10° N
ATLAS 3B CENTAUR R/B 4.4 01:13:44 29° S 01:13:44 29° S 01:19:59 10° SE
Timation 2 Rocket 4.3 01:14:34 39° WSW 01:16:30 52° WNW 01:22:25 10° NNE
Meteor 1-15 Rocket 4.2 01:22:53 49° SW 01:24:19 68° WNW 01:29:56 10° N
Cosmos 1805 3.2 01:24:26 75° WNW 01:24:26 75° WNW 01:28:13 10° N
SJ 16-02 1.7 01:25:10 47° SSE 01:25:59 56° ESE 01:30:19 10° NNE
SL-14 R/B 3.9 01:23:27 10° N 01:27:19 53° ENE 01:28:24 39° SE
DNEPR-1 R/B 3.8 01:22:23 10° NW 01:28:13 86° SW 01:31:06 25° SSE
ERBS 2.9 01:25:08 10° NW 01:28:23 54° NE 01:31:37 10° ESE
Cosmos 2227 Rocket 2.3 01:33:34 43° SW 01:35:22 68° WNW 01:41:02 10° NNE
Cosmos 1538 Rocket 4.4 01:30:52 10° NW 01:35:42 41° WSW 01:35:51 41° WSW
Cosmos 1455 Rocket 3.9 01:34:24 30° SSE 01:36:08 47° E 01:40:24 10° NNE
Resurs 1-4 Rocket 2.5 01:32:52 10° N 01:37:58 50° WNW 01:39:24 39° WSW
Cosmos 2180 Rocket 4.4 01:36:44 35° S 01:39:30 90° W 01:45:41 10° N
Cosmos 1674 3.8 01:37:11 10° NNW 01:39:47 31° WNW 01:39:47 31° WNW
Cosmos 1733 3.1 01:42:54 64° WSW 01:43:06 66° W 01:46:56 10° N
Cosmos 1892 Rocket 3.6 01:39:44 10° N 01:44:14 80° E 01:46:08 34° SSE
Cosmos 2279 Rocket 4.0 01:44:46 36° SW 01:47:15 63° W 01:53:26 10° N
USA 215 3.2 01:41:28 10° NE 01:48:03 86° SE 01:51:29 31° SW
Cosmos 1461 3.5 01:47:03 39° SSE 01:48:14 52° ESE 01:52:38 10° NE
COBE Rocket 3.7 01:47:33 43° SSW 01:48:55 65° W 01:53:33 10° NNW
SL-24 R/B 4.4 01:53:41 39° SSW 01:55:15 60° W 02:00:10 10° NNW
Cosmos 2082 3.6 01:53:29 36° SW 01:55:53 80° WNW 02:01:33 10° NNE
Cosmos 1340 Rocket 3.5 01:54:19 28° SSE 01:56:07 50° E 01:59:59 10° NNE
SL-4 R/B 1.5 01:58:02 13° WNW 02:01:06 80° NNE 02:04:30 10° ESE
Cosmos 2112 Rocket 3.9 01:56:06 10° NNW 02:01:22 85° WSW 02:06:33 10° SSE
Cosmos 1953 4.0 01:59:20 11° SSE 02:02:35 29° E 02:06:07 10° NNE
Meteor 1-24 Rocket 3.7 02:00:50 10° NNW 02:06:11 56° W 02:08:55 27° SSW
Cosmos 1726 3.6 02:04:07 15° SSE 02:06:39 34° E 02:10:01 10° NNE
CBERS-1 4.2 02:01:48 10° N 02:06:51 59° WNW 02:09:09 31° SW
SL-16 R/B 2.2 02:01:55 10° NNW 02:07:31 59° WSW 02:12:33 13° S
Meteor 2-5 Rocket 4.2 02:04:34 10° NNW 02:09:49 40° W 02:11:59 29° SW
Cosmos 1937 Rocket 3.8 02:06:56 23° S 02:10:12 66° ESE 02:15:29 10° NNE
H-2A R/B 3.5 02:09:50 10° SE 02:13:37 36° ENE 02:17:23 10° N
ARIANE 5 R/B 2.6 02:09:09 10° NNE 02:14:24 79° ESE 02:18:03 20° S
Cosmos 1898 Rocket 3.4 02:11:41 28° SSW 02:14:32 85° WNW 02:19:48 10° NNE
SL-16 R/B 3.6 02:13:42 23° WSW 02:15:06 24° W 02:20:05 10° NW
CZ-2D R/B 3.5 02:12:28 10° N 02:16:56 26° WNW 02:19:24 19° W
IDEFIX/ARIANE 42P 3.1 02:12:10 10° NNE 02:17:17 56° E 02:21:55 13° S
Cosmos 1680 Rocket 3.6 02:14:01 10° NNW 02:19:05 51° WSW 02:22:58 17° S
USA 267 3.3 02:13:37 10° SE 02:20:11 86° NE 02:26:45 10° NW
NOSS 3-1 (C) 3.3 02:17:24 26° SSW 02:20:40 78° SE 02:26:59 10° NE
Cosmos 1544 Rocket 3.5 02:20:01 25° SSW 02:22:35 80° W 02:27:05 10° N
ADEOS II 2.5 02:20:27 10° N 02:25:29 47° WNW 02:28:23 24° SW
CZ-4C R/B 4.2 02:23:14 10° SE 02:26:15 39° ENE 02:29:22 10° N
Cosmos 990 Rocket 4.1 02:23:20 26° SW 02:26:15 63° WNW 02:31:25 10° NNE
Cosmos 1607 4.2 02:20:11 10° NW 02:26:22 50° WSW 02:32:33 10° S
Timation 1 Rocket 4.4 02:22:56 20° SSW 02:27:12 76° ESE 02:33:10 10° NNE
Cosmos 2263 Rocket 2.9 02:23:53 13° S 02:28:40 49° ESE 02:34:01 10° NE
IRS-1D 4.3 02:24:40 10° N 02:29:16 36° WNW 02:31:54 22° WSW
Cosmos 2297 Rocket 3.6 02:27:24 15° W 02:30:48 25° NW 02:35:27 10° N
Okean 1-7 Rocket 4.0 02:28:33 10° NNW 02:32:42 41° W 02:35:04 22° SSW
ERS-1 4.4 02:28:31 10° N 02:33:27 69° WNW 02:36:58 19° SSW
Meteor 2-10 4.3 02:29:20 13° S 02:34:15 79° E 02:39:54 10° NNE
IRS-1C 4.4 02:29:54 10° N 02:35:07 55° WNW 02:38:42 20° SW
NOSS 2-3 (D) 4.2 02:33:37 18° SSW 02:36:32 52° ESE 02:41:15 10° NE
Meteor 1-28 Rocket 3.6 02:36:22 23° SSW 02:38:20 41° W 02:41:58 10° NNW
Cosmos 1626 3.7 02:35:58 10° NW 02:38:38 19° W 02:38:56 19° W
Cosmos 2266 Rocket 4.3 02:33:36 10° NNW 02:39:39 47° W 02:45:02 13° SSW
Cosmos 2237 Rocket 4.1 02:40:41 10° W 02:41:37 11° W 02:41:37 11° W
Cosmos 1602 Rocket 3.5 02:37:48 10° N 02:42:12 86° E 02:46:32 10° S
Cosmos 1470 3.5 02:41:43 23° SW 02:43:37 36° WNW 02:47:19 10° N
CZ-2C R/B 4.0 02:41:21 10° NNE 02:45:25 31° E 02:49:29 10° SSE
Cosmos 1603 3.8 02:41:21 10° NNW 02:47:08 83° ENE 02:52:51 10° SSE
SL-08 R/B 4.0 02:43:56 15° SSW 02:47:39 38° W 02:52:17 10° NNW
Meteor 2-21 Rocket 4.4 02:42:16 10° N 02:48:21 89° ENE 02:54:26 10° S
USA 229 DEB 3.7 02:48:34 16° SW 02:53:53 78° NW 03:00:49 10° NE
USA 229 3.7 02:48:39 16° SW 02:53:58 78° NW 03:00:53 10° NE
Helios 1B 4.5 02:49:41 10° S 02:54:00 72° WSW 02:58:22 10° NNW
Cosmos 2098 Rocket 4.4 02:50:24 10° NNW 02:54:42 32° W 02:59:34 11° SSW
Nadezhda 2 Rocket 4.4 02:51:32 10° NNW 02:57:47 75° W 03:03:53 10° S
Cosmos 2298 Rocket 4.4 02:58:00 10° S 03:03:15 66° ESE 03:08:33 10° NNE
ERBS 3.8 03:02:11 10° W 03:04:20 16° SW 03:06:29 10° SSW
NOSS 2-3 (C) 3.7 03:01:07 14° SW 03:04:44 85° NW 03:09:46 10° NE
SJ 16-02 3.2 03:02:10 11° W 03:04:56 17° NW 03:07:56 10° NNW
NOSS 3-1 (A) 3.3 03:00:07 13° SW 03:04:58 86° NW 03:11:24 10° NE
MSX 3.9 03:07:32 10° N 03:13:17 73° WNW 03:19:01 10° SSW
PSLV R/B 3.9 03:09:56 10° NNE 03:14:20 71° ESE 03:18:40 10° S
Cosmos 1943 3.1 03:08:44 10° NNW 03:14:21 74° WSW 03:19:56 10° SSE
Cosmos 1626 Rocket 4.3 03:11:08 10° NNW 03:14:59 32° W 03:18:47 10° SSW
Cosmos 2227 Rocket 4.3 03:17:24 10° WNW 03:20:32 15° NW 03:23:41 10° N
PAYLOAD A 4.3 03:15:16 10° NNE 03:20:42 81° ESE 03:25:56 10° SSW
deb Chang Zheng 4 4.4 03:16:55 10° NNE 03:21:11 53° E 03:25:27 10° S
SeaSat 1 2.5 03:16:53 10° NNE 03:21:52 80° WNW 03:26:47 10° SSW
Landsat 5 3.8 03:20:14 10° S 03:23:54 40° W 03:27:42 10° NNW
CZ-2C R/B 3.5 03:22:23 10° N 03:26:00 37° WNW 03:29:32 10° SW
Cosmos 2058 Rocket 4.4 03:24:05 10° SSE 03:28:19 43° E 03:32:34 10° NNE
USA 215 4.1 03:24:38 10° NE 03:30:43 43° NNW 03:36:48 10° W
Meteor 1-11 4.4 03:25:11 10° N 03:31:00 89° E 03:36:43 10° S
Cosmos 1048 Rocket 4.0 03:25:52 10° NNW 03:31:01 85° WSW 03:36:12 10° SSE
FALCON 9 DEB 3.6 03:28:23 10° WNW 03:31:40 39° SW 03:34:54 10° SSE
ATLAS CENTAUR R/B 2.6 03:28:41 10° S 03:32:35 38° ESE 03:36:18 10° NE
Cosmos 1356 Rocket 4.0 03:28:32 10° S 03:32:42 62° E 03:36:50 10° NNE
Cosmos 1758 Rocket 3.7 03:28:50 10° NNW 03:33:03 54° W 03:37:16 10° S
ATLAS 3B CENTAUR R/B 4.2 03:28:51 10° WSW 03:33:55 16° SSW 03:37:22 10° S
ERS-2 2.9 03:31:55 10° SSW 03:35:11 31° W 03:38:29 10° NW
